User: anonymous   Login
Location: Nairn
(57.5833°N, 3.8667°W)
Time: 07:42:35
(UTC+00:00)
Language:

PSLV R/B - Orbit

View from above orbital plane
View from above orbital plane
View from above satellite
View from above satellite

Ground track
Ground track

The orbit data is extracted from the following two-line orbital elements,

1 28651U 05017C   20296.19737095  .00000103  00000-0  22885-4 0  9998
2 28651  97.9366 211.0962 0075191 113.8377 247.0735 14.73567780830667
Epoch (UTC): 22 October 2020 04:44:12
Eccentricity: 0.0075191
inclination: 97.9366°
perigee height: 597 km
apogee height: 702 km
right ascension of ascending node: 211.0962°
argument of perigee: 113.8377°
revolutions per day: 14.73567780
mean anomaly at epoch: 247.0735°
orbit number at epoch: 83066

The dashed part of the orbit path shows where the satellite is in the earth's shadow,  

DLR